Pinedale, WY

1:37 PM MDT on April 27, 2017 (GMT -0600)
Wenz

Weather History for KPNA - February, 2014

Change the Weather History Date:

Wednesday, February 5, 2014

  Actual Average (KBPI) Record (KBPI)
Temperature  
Mean Temperature -11 °F -  
Max Temperature 0 °F 21 °F 51 °F (1995)
Min Temperature -22 °F 0 °F -21 °F (2014)
Degree Days  
Heating Degree Days 76    
Moisture  
Dew Point -17 °F    
Average Humidity 75    
Maximum Humidity 84    
Minimum Humidity 65    
Precipitation  
Precipitation 0.00 in - - ()
Sea Level Pressure  
Sea Level Pressure 30.01 in    
Wind  
Wind Speed 5 mph (WNW)    
Max Wind Speed 9 mph    
Max Gust Speed -    
Visibility 6 miles    
Events Snow    
Averages and records for this station are not official NWS values.
T = Trace of Precipitation, MM = Missing Value Source: NWS Daily Summary

Daily Weather History Graph

Daily Weather History Graph

Search for Another Location

Airport or City:

Trip Planner

Search our weather history database for the weather conditions in past years. The results will help you decide how hot, cold, wet, or windy it might be!

Date:

Astronomy

Feb. 05, 2014 Rise Set
Actual Time 7:29 AM MST 5:37 PM MST
Civil Twilight 6:59 AM MST 6:07 PM MST
Nautical Twilight 6:25 AM MST 6:41 PM MST
Astronomical Twilight 5:52 AM MST 7:14 PM MST
Moon 10:35 AM MST (2/5) No Moon Set
Length of Visible Light 11h 07m
Length of Day
10h 08m
Waxing Crescent, 40% of the Moon is Illuminated
Feb 5
Waxing Crescent
Feb 6
First Quarter
Feb 14
Full
Feb 22
Last Quarter
Mar 1
New

Hourly Weather History & Observations

Time (MST) Temp. Windchill Dew Point Humidity Pressure Visibility Wind Dir Wind Speed Gust Speed Precip Events Conditions
12:15 AM -7.6 °F -22.1 °F -13.0 °F 77% 30.03 in 3.0 mi NW 6.9 mph - N/A Snow Light Snow
12:35 AM -9.4 °F -24.3 °F -13.0 °F 84% 30.03 in 3.0 mi NW 6.9 mph - N/A Snow Light Snow
12:55 AM -9.4 °F -24.3 °F -14.8 °F 77% 30.03 in 4.0 mi NW 6.9 mph - N/A Snow Light Snow
1:15 AM -9.4 °F -22.7 °F -14.8 °F 77% 30.03 in 3.0 mi NW 5.8 mph - N/A Snow Light Snow
1:35 AM -9.4 °F -22.7 °F -13.0 °F 84% 30.03 in 3.0 mi WNW 5.8 mph - N/A Snow Light Snow
1:55 AM -7.6 °F -18.8 °F -13.0 °F 77% 30.03 in 2.0 mi West 4.6 mph - N/A Snow Light Snow
2:15 AM -9.4 °F -24.3 °F -13.0 °F 84% 30.03 in 7.0 mi WNW 6.9 mph - N/A Snow Light Snow
2:35 AM -9.4 °F -25.6 °F -14.8 °F 77% 30.03 in 2.5 mi WNW 8.1 mph - N/A Snow Light Snow
2:55 AM -11.2 °F -24.8 °F -14.8 °F 84% 30.05 in 4.0 mi West 5.8 mph - N/A Snow Light Snow
3:15 AM -9.4 °F -24.3 °F -14.8 °F 77% 30.04 in 7.0 mi NW 6.9 mph - N/A   Overcast
3:35 AM -11.2 °F -24.8 °F -16.6 °F 77% 30.04 in 3.0 mi WNW 5.8 mph - N/A Snow Light Snow
3:55 AM -13.0 °F -28.6 °F -16.6 °F 84% 30.05 in 5.0 mi WNW 6.9 mph - N/A Snow Light Snow
4:15 AM -14.8 °F -29.1 °F -18.4 °F 84% 30.05 in 4.0 mi WNW 5.8 mph - N/A   Haze
4:35 AM -16.6 °F -26.8 °F -22.0 °F 76% 30.04 in 5.0 mi West 3.5 mph - N/A Snow Light Snow
4:55 AM -18.4 °F -33.4 °F -23.8 °F 76% 30.05 in 7.0 mi WNW 5.8 mph - N/A Snow Light Snow
5:15 AM -22.0 °F -41.0 °F -27.4 °F 76% 30.04 in 10.0 mi NW 8.1 mph - N/A   Scattered Clouds
5:35 AM -22.0 °F -42.3 °F -25.6 °F 83% 30.03 in 10.0 mi NW 9.2 mph - N/A   Mostly Cloudy
5:55 AM -18.4 °F -36.6 °F -25.6 °F 70% 30.04 in 10.0 mi NW 8.1 mph - N/A   Overcast
6:15 AM -18.4 °F - -25.6 °F 70% 30.05 in 7.0 mi Calm Calm - N/A   Overcast
6:35 AM -20.2 °F -37.3 °F -25.6 °F 76% 30.05 in 5.0 mi WSW 6.9 mph - N/A   Haze
6:55 AM -22.0 °F -37.7 °F -27.4 °F 76% 30.05 in 7.0 mi West 5.8 mph - N/A   Overcast
7:15 AM -20.2 °F -33.5 °F -25.6 °F 76% 30.03 in 7.0 mi West 4.6 mph - N/A   Overcast
7:35 AM -22.0 °F -41.0 °F -25.6 °F 83% 30.05 in 1.2 mi NW 8.1 mph - N/A   Haze
7:55 AM -18.4 °F -37.9 °F -25.6 °F 70% 30.03 in 5.0 mi NW 9.2 mph - N/A   Haze
8:15 AM -20.2 °F -37.3 °F -25.6 °F 76% 30.05 in 5.0 mi WNW 6.9 mph - N/A   Haze
8:35 AM -18.4 °F -28.9 °F -25.6 °F 70% 30.05 in 3.0 mi West 3.5 mph - N/A   Haze
8:55 AM -18.4 °F -28.9 °F -25.6 °F 70% 30.05 in 2.0 mi WNW 3.5 mph - N/A   Haze
9:15 AM -16.6 °F -31.3 °F -23.8 °F 70% 30.06 in 7.0 mi NW 5.8 mph - N/A   Overcast
9:35 AM -14.8 °F - -20.2 °F 77% 30.06 in 10.0 mi Calm Calm - N/A   Overcast
9:55 AM -13.0 °F - -18.4 °F 77% 30.06 in 7.0 mi Calm Calm - N/A   Mostly Cloudy
10:15 AM -9.4 °F - -16.6 °F 71% 30.06 in 7.0 mi Calm Calm - N/A   Scattered Clouds
10:35 AM -9.4 °F - -16.6 °F 71% 30.06 in 10.0 mi Calm Calm - N/A   Clear
10:55 AM -7.6 °F - -14.8 °F 71% 30.05 in 10.0 mi Calm Calm - N/A   Mostly Cloudy
11:15 AM -5.8 °F -14.5 °F -14.8 °F 65% 30.05 in 7.0 mi WNW 3.5 mph - N/A   Mostly Cloudy
11:35 AM -5.8 °F - -13.0 °F 71% 30.04 in 10.0 mi Calm Calm - N/A   Scattered Clouds
11:55 AM -4.0 °F - -13.0 °F 65% 30.03 in 10.0 mi Calm Calm - N/A   Mostly Cloudy
12:15 PM -2.2 °F -10.4 °F -11.2 °F 66% 30.01 in 7.0 mi NNE 3.5 mph - N/A   Overcast
12:35 PM -4.0 °F - -11.2 °F 71% 30.01 in 4.0 mi Calm Calm - N/A   Haze
12:55 PM -4.0 °F - -9.4 °F 78% 30.00 in 1.5 mi Calm Calm - N/A Snow Light Snow
1:15 PM -0.4 °F - -9.4 °F 66% 29.99 in 1.5 mi Calm Calm - N/A   Haze
1:35 PM -0.4 °F -8.3 °F -9.4 °F 66% 29.98 in 2.0 mi North 3.5 mph - N/A   Haze
1:55 PM -2.2 °F - -9.4 °F 71% 29.97 in 1.5 mi Calm Calm - N/A Snow Light Snow
2:15 PM -0.4 °F -8.3 °F -7.6 °F 72% 29.96 in 2.0 mi NNE 3.5 mph - N/A   Haze
2:35 PM -2.2 °F - -9.4 °F 71% 29.95 in 2.5 mi Calm Calm - N/A Snow Light Snow
2:55 PM -0.4 °F - -7.6 °F 72% 29.97 in 1.8 mi Calm Calm - N/A Snow Light Snow
3:15 PM -0.4 °F -8.3 °F -7.6 °F 72% 29.97 in 1.5 mi NW 3.5 mph - N/A Snow Light Snow
3:35 PM -0.4 °F - -7.6 °F 72% 29.97 in 1.8 mi Calm Calm - N/A Snow Light Snow
3:55 PM -0.4 °F -8.3 °F -5.8 °F 78% 29.97 in 1.8 mi NNW 3.5 mph - N/A Snow Light Snow
4:15 PM -0.4 °F - -7.6 °F 72% 29.98 in 2.5 mi Calm Calm - N/A Snow Light Snow
4:35 PM -0.4 °F - -5.8 °F 78% 29.97 in 1.8 mi Calm Calm - N/A Snow Light Snow
4:55 PM -2.2 °F - -7.6 °F 78% 29.98 in 3.0 mi Calm Calm - N/A   Haze
5:15 PM -4.0 °F -12.4 °F -9.4 °F 78% 29.97 in 7.0 mi North 3.5 mph - N/A   Overcast
5:35 PM -5.8 °F - -11.2 °F 77% 29.97 in 10.0 mi Calm Calm - N/A   Overcast
5:55 PM -9.4 °F -18.6 °F -14.8 °F 77% 29.98 in 10.0 mi NNW 3.5 mph - N/A   Overcast
6:15 PM -7.6 °F -16.5 °F -13.0 °F 77% 29.98 in 10.0 mi West 3.5 mph - N/A   Overcast
6:35 PM -13.0 °F -22.7 °F -16.6 °F 84% 29.98 in 10.0 mi NNW 3.5 mph - N/A   Overcast
6:55 PM -13.0 °F - -16.6 °F 84% 29.98 in 10.0 mi Calm Calm - N/A   Overcast
7:15 PM -14.8 °F - -20.2 °F 77% 29.98 in 10.0 mi Calm Calm - N/A   Mostly Cloudy
7:35 PM -16.6 °F -26.8 °F -22.0 °F 76% 29.99 in 10.0 mi WNW 3.5 mph - N/A   Mostly Cloudy
7:55 PM -18.4 °F -28.9 °F -22.0 °F 84% 29.98 in 10.0 mi West 3.5 mph - N/A   Overcast
8:15 PM -18.4 °F -31.4 °F -23.8 °F 76% 29.98 in 10.0 mi West 4.6 mph - N/A   Overcast
8:35 PM -16.6 °F -29.3 °F -22.0 °F 76% 29.97 in 10.0 mi WNW 4.6 mph - N/A   Overcast
8:55 PM -16.6 °F -29.3 °F -22.0 °F 76% 29.97 in 10.0 mi NW 4.6 mph - N/A   Overcast
9:15 PM -18.4 °F -33.4 °F -23.8 °F 76% 29.97 in 10.0 mi WSW 5.8 mph - N/A   Overcast
9:35 PM -16.6 °F -29.3 °F -22.0 °F 76% 29.97 in 10.0 mi WNW 4.6 mph - N/A   Overcast
9:55 PM -16.6 °F -29.3 °F -22.0 °F 76% 29.97 in 10.0 mi North 4.6 mph - N/A   Overcast
10:15 PM -18.4 °F -28.9 °F -23.8 °F 76% 29.98 in 10.0 mi NW 3.5 mph - N/A   Overcast
10:35 PM -18.4 °F -28.9 °F -23.8 °F 76% 29.98 in 10.0 mi WSW 3.5 mph - N/A   Overcast
10:55 PM -18.4 °F -31.4 °F -23.8 °F 76% 29.98 in 7.0 mi WSW 4.6 mph - N/A   Overcast
11:15 PM -16.6 °F -31.3 °F -23.8 °F 70% 29.97 in 7.0 mi West 5.8 mph - N/A   Overcast
11:35 PM -16.6 °F -26.8 °F -23.8 °F 70% 29.96 in 7.0 mi WNW 3.5 mph - N/A   Overcast
11:55 PM -18.4 °F -31.4 °F -23.8 °F 76% 29.95 in 7.0 mi WNW 4.6 mph - N/A Snow Light Snow